Toronto Pearson, Ontario

5:52 AM EST on November 22, 2019 (GMT -0500)
Toronto-Pearson International

Weather History for CYYZ - June, 2019

Change the Weather History Date:

Saturday, June 8, 2019

  Actual Average Record
Temperature  
Mean Temperature 65 °F -  
Max Temperature 75 °F 76 °F 91 °F (2011)
Min Temperature 55 °F 54 °F 45 °F (2016)
Growing Degree Days 15 (Base 50)    
Moisture  
Dew Point 38 °F    
Average Humidity 35    
Maximum Humidity 72    
Minimum Humidity 12    
Precipitation  
Precipitation 0.00 in 0.09 in - ()
Sea Level Pressure  
Sea Level Pressure 30.17 in    
Wind  
Wind Speed 11 mph ()    
Max Wind Speed 25 mph    
Max Gust Speed 32 mph    
Visibility 15.0 miles    
Events      
Averages and records for this station are not official NWS values.
T = Trace of Precipitation, MM = Missing Value Source: Averaged Metar Reports

Daily Weather History Graph

Daily Weather History Graph

Search for Another Location

Airport or City:

Astronomy

Jun. 08, 2019 Rise Set
Actual Time 5:37 AM EDT 8:58 PM EDT
Civil Twilight 5:01 AM EDT 9:33 PM EDT
Nautical Twilight 4:15 AM EDT 10:20 PM EDT
Astronomical Twilight 3:17 AM EDT 11:18 PM EDT
Moon 11:07 AM EDT (6/8) 12:55 AM EDT (6/8)
Length of Visible Light 16h 32m
Length of Day
15h 20m
Waxing Crescent, 32% of the Moon is Illuminated
Jun 8
Waxing Crescent
Jun 10
First Quarter
Jun 17
Full
Jun 25
Last Quarter
Jul 2
New

Hourly Weather History & Observations

Time (EDT) Temp. Dew Point Humidity Pressure Visibility Wind Dir Wind Speed Gust Speed Precip Events Conditions
12:00 AM 64.4 °F 46.4 °F 52% 30.09 in 15.0 mi NNE 6.9 mph - N/A   Clear
1:00 AM 62.6 °F 46.4 °F 55% 30.09 in 15.0 mi NE 9.2 mph - N/A   Clear
2:00 AM 60 °F 47 °F 52% 30.10 in 15 mi NE 9.2 mph - -  
2:00 AM 60.8 °F 46.4 °F 59% 30.10 in 15.0 mi NNE 9.2 mph - N/A   Clear
3:00 AM 59.0 °F 48.2 °F 67% 30.10 in 15.0 mi NE 8.1 mph - N/A   Clear
4:00 AM 57.2 °F 48.2 °F 72% 30.11 in 15.0 mi Variable 6.9 mph - N/A   Clear
5:00 AM 57.2 °F 46.4 °F 67% 30.13 in 15.0 mi ENE 10.4 mph - N/A   Clear
6:00 AM 59.0 °F 44.6 °F 59% 30.14 in 15.0 mi ENE 12.7 mph - N/A   Partly Cloudy
7:00 AM 64.4 °F 37.4 °F 37% 30.16 in 15.0 mi East 13.8 mph 20.7 mph N/A   Partly Cloudy
8:00 AM 65 °F 40 °F 28% 30.19 in 15 mi East 13.8 mph - -   Scattered Clouds
8:00 AM 64.4 °F 39.2 °F 40% 30.19 in 15.0 mi East 13.8 mph 25.3 mph N/A   Partly Cloudy
9:00 AM 68.0 °F 37.4 °F 33% 30.19 in 15.0 mi ESE 15.0 mph 25.3 mph N/A   Partly Cloudy
10:00 AM 69.8 °F 41.0 °F 35% 30.21 in 15.0 mi ESE 11.5 mph 24.2 mph N/A   Partly Cloudy
11:00 AM 71 °F 40 °F 22% 30.21 in 15 mi East 13.8 mph - -  
11:00 AM 71.6 °F 41.0 °F 33% 30.21 in 15.0 mi East 15.0 mph 26.5 mph N/A   Partly Cloudy
1:00 PM 71.6 °F 39.2 °F 31% 30.21 in 15.0 mi East 21.9 mph 27.6 mph N/A   Partly Cloudy
2:00 PM 72 °F 33 °F 14% 30.21 in 15 mi East 20.7 mph - -   Scattered Clouds
2:00 PM 73.4 °F 33.8 °F 23% 30.21 in 15.0 mi East 25.3 mph 32.2 mph N/A   Partly Cloudy
3:00 PM 73.4 °F 37.4 °F 27% 30.20 in 15.0 mi East 17.3 mph 28.8 mph N/A   Partly Cloudy
4:00 PM 75.2 °F 32.0 °F 21% 30.20 in 15.0 mi ESE 13.8 mph 21.9 mph N/A   Scattered Clouds
5:00 PM 73 °F 31 °F 12% 30.20 in 15 mi ESE 11.5 mph - -  
5:00 PM 73.4 °F 30.2 °F 20% 30.19 in 15.0 mi East 13.8 mph 21.9 mph N/A   Mostly Cloudy
6:00 PM 73.4 °F 28.4 °F 19% 30.18 in 15.0 mi East 11.5 mph 23.0 mph N/A   Mostly Cloudy
7:00 PM 71.6 °F 24.8 °F 17% 30.17 in 15.0 mi East 20.7 mph 27.6 mph N/A   Mostly Cloudy
8:00 PM 70 °F 30 °F 13% 30.17 in 15 mi East 18.4 mph - -   Clear
8:00 PM 69.8 °F 30.2 °F 23% 30.17 in 15.0 mi East 19.6 mph 26.5 mph N/A   Mostly Cloudy
9:00 PM 66.2 °F 33.8 °F 30% 30.17 in 15.0 mi East 11.5 mph 18.4 mph N/A   Mostly Cloudy
11:00 PM 63 °F 32 °F 19% 30.18 in 15 mi East 10.4 mph - -  
11:00 PM 62.6 °F 32.0 °F 32% 30.18 in 15.0 mi East 9.2 mph - N/A   Mostly Cloudy